Wind_Speed
3 3 1 2 3 3 2 2 2 2 1 2 4 2 4 5 4 4 6 3 0 2 3 3 4 3 7 9 11 13 10 4 3 5 3 5 22 28 30 34 33 29 29 27 26 24 23 23 25 26 25 24 22 20 19 19 21 24 23 23 22 22 21 20 20 20 20 20 20 20 19 20 21 22 24 24 23 22 23 22 22 22 22 21 21 20 20 19 17 17 16 16 17 18 19 19 20
2 2 2 3 3 3 1 2 2 2 2 3 4 3 4 3 3 5 5 3 3 4 4 2 6 9 11 10 10 17 15 10 11 9 5 18 30 28 33 38 39 37 34 31 28 26 25 25 26 26 25 24 23 21 19 20 22 23 23 22 21 21 21 20 20 20 20 20 20 20 20 20 21 23 24 23 22 22 22 22 21 21 21 21 20 19 18 18 16 17 19 18 18 18 19 18 19
3 2 2 3 2 2 0 2 2 1 2 3 4 4 4 3 5 7 6 6 6 6 4 2 8 5 7 11 10 14 10 9 12 10 6 17 21 24 36 38 39 36 33 32 28 27 25 25 25 25 24 24 23 21 20 20 21 22 23 21 21 20 20 21 20 20 20 20 20 20 20 20 21 23 23 22 22 22 22 21 21 20 19 19 18 18 17 16 16 19 20 20 19 19 19 19 19
3 2 1 2 2 2 2 2 2 3 3 4 4 5 4 4 7 6 7 7 5 1 2 4 7 4 9 14 9 10 7 5 5 7 5 9 17 30 37 37 38 34 32 31 28 28 26 26 25 25 25 24 24 22 21 21 21 22 23 22 21 20 20 20 19 19 19 20 20 20 20 19 21 23 22 21 21 22 22 21 20 19 18 17 18 17 17 15 15 19 21 19 19 18 18 19 18
3 2 2 2 2 1 2 1 2 3 4 4 2 6 5 5 6 6 6 6 6 1 3 4 4 4 11 9 4 5 4 5 2 4 8 13 27 36 35 36 36 33 33 31 29 29 27 27 26 26 26 26 25 23 23 22 22 22 22 22 21 20 19 19 19 18 18 19 20 20 19 19 21 23 22 19 19 21 22 19 18 18 17 17 17 17 16 14 15 18 21 20 18 17 17 17 16
2 1 1 1 1 1 1 1 2 3 5 4 2 8 9 7 6 6 5 5 6 3 4 6 7 6 8 3 3 3 1 8 4 7 17 23 32 34 34 35 34 33 32 30 30 29 28 28 28 28 27 27 26 24 23 22 22 22 22 22 20 19 19 18 18 18 18 19 19 19 18 19 21 22 21 18 19 20 20 18 18 18 17 16 16 16 14 13 14 17 21 20 17 16 16 15 14
2 2 2 1 1 1 2 3 3 4 5 6 5 9 11 11 7 3 2 2 3 1 7 8 11 12 5 2 4 8 5 10 11 16 24 29 32 31 31 32 32 32 30 29 29 28 28 28 28 28 28 28 27 25 23 22 23 23 22 21 20 20 19 18 18 18 19 19 18 18 18 19 20 20 19 18 18 19 19 18 17 17 16 15 15 14 13 12 13 16 20 19 17 15 14 13 12
2 1 1 3 1 1 1 3 4 4 4 5 6 9 12 13 9 1 2 1 1 3 10 9 12 13 5 5 6 7 7 9 15 22 26 30 31 29 29 30 32 31 30 30 28 27 27 27 28 28 28 28 27 26 24 24 24 23 22 21 21 20 19 19 18 19 20 20 18 17 19 20 19 19 19 17 17 18 18 17 16 17 16 15 13 13 12 11 13 15 17 18 16 14 13 12 11
2 1 1 3 1 2 2 3 4 4 5 7 8 11 12 11 7 2 1 2 1 4 8 6 9 11 4 10 7 3 4 10 20 26 27 31 31 30 30 31 32 31 31 31 29 28 26 27 28 28 28 28 28 27 26 25 24 23 22 22 22 20 19 19 19 20 21 20 18 18 19 19 19 19 18 17 16 17 18 16 16 16 15 14 12 12 11 12 13 14 16 17 16 14 12 11 11
2 1 1 1 2 1 4 3 4 4 6 7 10 13 10 8 4 2 1 2 3 8 10 10 12 12 10 10 5 1 3 13 23 24 24 29 30 31 31 31 32 32 32 31 30 29 27 27 27 27 27 28 29 28 27 25 24 23 22 22 22 20 20 19 19 20 20 19 18 18 19 19 19 18 17 16 16 16 17 16 16 15 13 12 11 11 11 12 12 13 15 17 17 15 13 12 12
2 1 2 1 1 1 4 3 4 5 7 7 9 11 8 4 1 2 1 1 4 9 10 12 12 11 11 6 3 1 4 12 20 22 23 27 28 29 30 31 30 31 33 31 29 28 28 27 26 27 26 28 29 28 27 26 24 23 22 22 23 22 20 19 19 20 20 19 18 18 18 19 19 18 16 15 16 16 15 15 15 14 12 11 11 11 12 12 12 13 15 18 17 15 14 13 13
2 2 2 1 2 3 4 3 5 7 9 6 5 6 3 1 3 1 1 2 5 8 6 8 8 9 10 4 2 2 4 8 16 22 23 25 25 25 27 30 30 30 31 30 29 28 27 26 25 26 26 27 28 27 27 26 25 23 23 24 25 23 21 21 21 21 21 20 19 18 18 19 18 17 16 15 16 16 14 13 13 13 12 11 11 12 12 13 13 13 16 19 18 16 15 13 12
2 2 4 1 3 3 3 4 6 6 8 5 4 4 1 2 2 5 2 4 6 8 5 9 11 7 8 4 4 3 4 8 15 20 22 23 23 24 25 26 28 28 27 27 27 27 27 26 26 26 26 27 27 27 26 26 25 24 24 25 26 24 23 23 23 23 22 21 19 19 18 18 18 17 16 15 15 16 14 12 12 11 11 11 12 12 13 14 14 14 17 20 19 18 16 13 12
3 2 4 1 2 1 4 4 5 4 5 5 3 4 2 0 1 1 4 6 6 8 7 10 13 10 7 5 4 4 6 12 17 20 22 20 20 22 22 23 25 25 25 25 25 26 26 26 26 26 27 27 27 26 25 24 24 24 25 25 25 24 23 23 24 24 24 22 19 18 18 18 17 17 15 15 16 15 13 12 11 11 11 12 12 12 13 14 15 15 18 20 19 18 15 13 13
5 1 4 1 3 2 4 4 5 4 4 5 3 2 1 1 0 3 5 7 5 4 7 6 6 7 8 9 5 7 11 17 18 21 22 20 19 20 20 20 22 24 23 23 24 25 25 25 26 26 27 27 26 25 24 23 22 23 24 24 24 23 22 23 24 25 24 22 20 19 18 17 17 16 15 15 16 14 13 12 11 10 10 12 13 12 13 14 15 16 18 19 19 17 15 14 13
4 1 2 1 3 2 3 4 2 2 5 6 3 1 2 4 3 4 3 7 4 4 5 2 2 2 10 9 7 14 18 20 21 22 23 21 19 18 18 18 21 22 22 22 23 23 23 24 25 26 26 26 25 25 24 23 22 23 24 23 22 21 22 23 23 23 22 21 20 19 17 17 17 16 15 15 16 14 13 12 11 9 10 12 13 12 13 14 15 16 17 18 18 17 15 14 13
1 2 1 3 3 3 4 3 1 1 4 5 3 5 4 5 5 5 5 11 9 6 8 5 6 5 6 6 15 23 22 22 23 23 21 19 19 17 16 17 19 20 21 22 21 22 21 22 25 25 25 25 24 23 23 23 23 23 23 22 21 21 22 23 22 21 21 20 20 19 18 18 17 16 15 15 16 14 13 12 10 9 10 12 13 13 13 13 14 15 16 18 18 17 16 15 12
2 2 3 4 4 4 4 3 4 1 3 5 4 5 5 5 4 2 6 10 10 10 8 8 11 11 10 16 24 26 23 24 24 23 19 16 16 15 14 16 17 19 20 21 21 21 20 22 25 24 23 23 23 22 22 23 23 22 22 21 20 21 22 22 21 21 20 19 19 18 18 18 17 16 16 16 16 15 13 11 10 10 10 11 13 13 13 13 14 14 15 17 19 17 16 14 11
4 3 4 5 5 4 2 3 7 4 2 3 4 4 6 4 3 2 4 5 9 11 7 8 13 11 12 17 22 22 23 23 21 21 17 14 15 14 14 16 17 18 19 20 20 20 20 22 23 22 21 20 20 21 22 22 22 22 21 21 21 22 22 22 22 21 21 20 19 18 17 16 16 16 15 16 15 15 13 11 10 10 10 11 12 13 13 13 14 14 15 17 18 17 14 12 11
4 4 4 6 5 4 5 4 7 7 4 1 4 3 6 6 3 4 5 4 7 9 6 7 10 10 11 11 15 19 19 18 18 18 15 13 14 15 17 17 18 18 18 18 19 19 20 21 20 19 19 19 19 20 21 21 22 22 21 21 22 22 22 22 22 22 21 20 19 19 17 16 15 15 15 15 14 14 14 13 10 10 10 11 12 13 13 13 13 15 15 17 17 15 12 10 10
2 5 5 6 4 4 8 6 7 7 3 2 3 5 6 7 5 3 7 5 3 6 9 10 14 15 14 12 14 17 16 15 15 15 15 15 15 16 16 16 16 16 16 17 18 18 19 19 19 18 18 19 19 20 21 21 22 23 22 22 23 22 22 22 22 22 21 20 19 19 18 16 15 14 14 15 15 14 15 15 13 11 11 11 12 12 13 12 13 14 15 16 15 13 11 9 8
2 4 6 7 5 5 9 5 6 5 3 4 4 6 3 5 5 0 7 6 4 6 7 12 17 17 17 15 14 15 13 13 13 14 15 15 15 15 15 15 16 16 17 16 17 17 17 18 18 18 19 20 20 21 21 22 23 24 24 23 23 22 22 23 22 22 22 20 20 19 19 17 15 15 15 15 16 16 16 17 15 13 11 11 11 12 13 13 12 14 15 15 14 12 10 8 6
4 6 5 8 8 7 7 2 5 4 5 3 2 1 1 5 6 4 4 1 5 8 9 13 16 17 18 16 13 13 13 13 13 15 17 16 16 17 18 17 17 18 17 16 16 15 16 17 18 20 20 21 22 22 22 23 24 25 24 23 23 23 22 23 23 23 22 21 20 19 20 19 17 17 16 15 15 16 16 16 13 12 12 12 11 11 13 13 13 14 14 14 12 10 7 5 5
6 7 7 8 9 9 8 4 6 6 7 5 2 1 0 3 4 5 5 1 7 13 12 14 14 15 16 14 12 12 13 12 12 16 18 19 20 21 20 18 17 18 17 16 15 15 17 19 20 22 22 23 22 22 22 24 25 25 24 23 22 22 22 23 24 23 21 21 21 19 19 19 19 19 17 15 14 14 14 13 11 10 12 13 13 12 13 14 13 13 13 12 10 7 4 4 7
7 9 9 7 7 8 9 7 7 6 6 5 4 2 4 5 2 3 2 6 11 13 12 13 13 13 13 12 13 12 11 9 10 13 14 16 18 18 17 17 17 18 17 17 16 17 19 21 23 24 24 23 22 21 22 23 23 24 23 22 22 22 23 23 24 23 22 21 21 19 18 19 19 19 17 16 15 14 13 12 11 10 11 13 14 13 13 15 14 12 11 10 9 6 4 4 6
6 9 9 7 7 7 8 6 7 7 5 5 5 2 7 4 1 2 3 10 11 12 13 13 14 13 11 11 12 11 11 10 10 12 12 15 16 15 16 18 19 19 19 18 19 20 21 23 25 25 24 22 21 21 21 22 22 23 22 21 22 22 23 23 23 23 22 22 21 20 19 19 19 18 17 16 16 15 13 13 12 11 10 12 13 13 14 16 14 12 11 10 9 7 5 4 5
4 6 8 9 9 7 5 4 5 5 4 5 6 3 6 3 2 3 3 12 12 13 12 11 12 12 11 10 10 10 11 12 14 13 12 13 15 16 17 19 21 21 21 21 22 23 24 24 25 24 22 20 21 21 22 22 21 20 18 20 21 22 23 23 23 22 22 22 22 21 20 19 18 16 16 17 17 16 15 15 14 12 11 12 12 12 13 14 12 10 10 9 9 7 5 5 5
6 7 7 8 7 6 5 4 5 3 2 5 8 4 6 1 3 5 6 12 12 14 12 10 10 9 10 9 9 9 10 14 17 15 13 14 16 19 20 21 22 22 23 24 25 25 25 24 23 23 22 21 21 21 21 21 20 18 18 21 22 22 23 24 25 22 21 22 21 21 20 19 18 16 17 18 17 17 16 15 15 14 12 13 14 12 11 11 11 9 9 9 8 7 6 6 6
7 6 5 6 4 4 6 5 4 3 1 5 7 1 5 2 5 6 10 11 11 13 11 10 9 8 9 9 9 8 9 15 17 16 18 20 21 22 22 23 24 23 23 24 24 25 25 24 23 23 23 22 21 21 20 18 18 18 18 21 21 22 22 23 24 23 22 22 21 20 19 18 17 16 17 18 17 17 16 15 14 13 15 15 16 13 10 10 10 10 11 10 9 8 8 8 8
6 4 2 2 6 5 6 4 3 3 3 6 6 2 6 6 9 6 11 12 12 13 10 10 8 8 8 8 8 7 10 14 14 17 21 22 22 23 23 23 24 23 23 23 24 24 24 24 24 25 25 23 22 23 22 19 16 16 16 17 18 17 18 19 20 21 21 22 20 20 19 18 17 16 18 18 18 17 16 15 12 12 16 17 16 14 12 12 13 13 14 12 10 9 8 9 10
3 3 1 1 1 4 4 3 3 2 3 6 8 2 7 7 10 6 11 14 14 13 10 10 8 7 8 7 8 7 8 12 15 19 21 22 23 23 24 24 24 23 23 24 24 24 24 25 26 27 27 27 28 27 25 20 16 16 14 14 14 12 14 17 17 18 19 19 19 19 19 18 17 16 18 18 17 17 15 15 15 14 16 17 17 16 14 15 16 15 14 13 11 10 9 10 11
1 0 3 2 2 4 4 2 6 5 3 5 8 3 6 7 11 7 11 15 14 13 10 9 9 9 9 8 8 7 5 9 16 20 21 23 24 24 24 24 24 23 22 23 23 24 25 25 27 29 31 32 30 26 24 19 15 18 17 15 16 14 15 18 18 19 19 19 19 19 19 19 18 18 18 18 17 17 16 16 18 17 16 17 18 16 14 15 16 15 14 12 11 9 9 11 11
2 2 3 2 2 2 4 5 7 9 4 4 7 5 4 5 8 3 9 15 13 13 11 9 10 9 10 8 7 7 6 8 12 16 22 24 25 26 25 24 24 23 22 22 23 25 25 25 28 31 33 32 26 20 20 18 16 19 20 19 19 18 18 20 20 19 19 19 19 19 19 19 19 18 19 18 17 17 17 17 18 17 16 17 17 14 14 15 15 14 14 11 10 10 12 12 11
3 1 2 3 3 2 2 6 4 9 8 6 8 7 5 7 5 5 5 16 14 13 12 10 9 8 9 8 8 8 8 9 9 13 22 25 26 27 25 24 23 22 22 22 22 24 25 26 30 32 30 26 21 18 19 20 20 21 21 23 22 20 20 21 20 19 19 21 20 19 19 19 19 17 18 19 18 18 18 18 19 17 16 16 16 14 13 14 13 12 13 13 11 14 16 13 10
1 1 1 4 3 1 3 6 5 8 11 9 9 8 9 9 6 7 1 14 15 14 12 10 10 9 7 7 8 7 9 9 9 15 23 26 27 26 24 24 22 21 22 22 22 23 26 29 31 29 25 22 19 19 20 22 23 23 23 24 24 21 21 20 20 21 21 21 21 20 19 19 19 18 18 18 18 18 18 19 19 17 17 17 16 14 12 13 12 10 12 14 14 16 16 14 13
1 2 2 3 4 4 5 8 7 9 11 9 8 8 9 9 7 4 4 8 8 10 12 9 8 8 6 6 7 7 9 8 10 18 23 25 27 26 24 24 22 22 22 23 24 25 28 29 28 25 24 24 22 21 21 21 23 24 24 25 25 23 22 21 22 23 22 21 20 20 20 19 19 19 18 18 19 19 19 20 19 18 18 17 16 15 14 13 13 12 13 16 17 16 14 15 16
3 3 3 5 5 5 6 9 9 9 9 7 8 8 8 8 7 4 4 6 4 5 8 7 8 7 7 8 8 8 8 8 12 17 21 25 27 26 25 25 23 22 22 24 27 29 30 30 27 25 25 27 27 25 23 22 23 24 25 27 25 23 23 22 21 22 21 21 20 19 20 20 20 19 19 19 19 20 20 20 19 19 18 16 16 16 15 14 14 13 16 19 18 18 18 17 18
5 4 5 6 4 5 8 9 6 8 7 4 6 7 7 8 6 4 6 9 8 8 8 7 9 8 8 9 9 8 7 7 10 13 17 22 24 24 26 26 26 25 24 26 29 29 29 29 28 27 27 28 28 27 25 24 24 25 27 28 26 23 22 22 21 21 21 20 20 20 21 21 21 20 19 19 19 20 20 19 19 18 17 16 15 16 15 15 16 16 18 21 19 20 22 21 21
5 4 3 5 4 4 7 7 3 3 4 2 4 6 6 8 5 2 6 9 8 12 13 12 12 10 8 10 10 9 9 9 9 10 14 20 22 24 26 27 28 27 26 27 29 27 26 27 27 29 30 30 29 28 27 27 27 26 25 23 22 21 21 20 19 20 20 20 20 21 22 23 23 21 20 19 19 19 19 19 18 17 16 17 16 17 16 16 18 17 18 22 20 20 20 22 23
3 4 3 4 5 2 4 5 7 5 2 4 4 4 4 5 6 6 2 5 6 11 13 12 13 13 13 13 12 13 14 13 12 11 12 15 20 21 22 25 27 26 26 27 27 26 25 25 25 28 30 30 30 29 28 29 29 27 23 17 17 18 18 18 17 16 19 20 20 21 22 23 23 22 21 20 19 19 20 19 18 17 17 17 16 17 17 18 19 18 19 23 23 21 19 21 22
4 5 5 5 7 4 3 3 7 6 4 3 5 4 5 4 5 7 4 2 4 8 9 8 9 10 11 12 12 14 16 15 14 13 11 12 15 18 19 23 25 25 27 28 28 27 25 24 24 26 29 30 30 30 29 28 27 26 22 16 14 14 13 15 17 17 18 20 20 21 21 22 22 22 22 20 19 20 21 19 17 16 17 17 15 16 17 18 19 19 20 23 23 23 21 23 22
5 5 8 9 8 6 3 3 5 6 5 2 4 4 5 5 4 7 5 4 1 4 6 9 10 7 7 10 11 11 11 11 12 12 11 10 11 13 15 18 21 24 26 26 26 26 24 23 23 25 29 30 30 30 28 27 27 26 21 17 16 15 14 15 19 20 20 20 21 21 20 20 21 21 21 21 20 21 21 18 16 16 17 16 15 14 16 18 19 19 21 21 21 23 22 24 23
4 5 8 7 3 2 1 4 5 2 3 3 3 5 3 5 5 7 6 6 3 2 6 8 7 5 6 9 9 8 8 8 7 8 9 9 10 12 14 17 21 20 16 16 19 23 23 20 21 24 28 30 30 29 28 28 27 25 22 20 19 18 17 17 18 19 20 20 19 20 20 19 19 20 20 20 20 20 19 17 16 16 16 15 14 14 15 17 18 19 19 19 19 21 22 24 23
4 6 6 4 1 4 1 5 4 3 3 4 4 5 3 3 5 6 4 5 6 2 4 8 9 9 7 6 5 6 8 8 7 7 5 3 2 1 2 6 7 5 8 6 8 17 21 18 19 24 26 27 28 29 29 29 28 26 23 19 17 17 17 17 16 15 17 17 17 18 19 19 19 20 19 18 18 17 16 15 15 16 15 14 14 16 15 16 17 17 17 17 17 19 22 24 22
6 7 5 3 2 3 1 5 4 2 2 4 6 2 3 2 6 6 5 5 6 7 6 7 9 12 10 8 8 7 7 4 4 4 4 6 9 11 11 9 10 15 18 17 12 10 14 15 17 21 22 24 25 26 28 27 26 24 20 16 16 15 15 14 15 14 15 16 15 16 17 18 19 18 18 16 15 15 15 14 15 16 15 15 15 16 16 16 16 16 16 16 18 20 21 21 20
6 5 2 1 2 2 3 5 4 2 4 1 7 1 3 2 6 7 5 4 5 7 7 8 4 2 5 6 6 5 5 6 7 7 6 8 11 10 6 3 3 5 7 10 13 12 11 13 16 18 18 20 23 23 24 23 20 19 16 15 16 15 14 13 14 15 15 15 14 14 16 18 19 17 16 15 14 14 14 15 16 16 16 16 16 16 16 16 16 15 15 15 17 18 19 18 18
3 4 2 3 5 4 4 3 4 4 3 5 7 1 5 1 5 5 4 4 4 5 6 8 11 12 10 8 8 8 8 7 7 6 6 8 10 8 6 6 6 8 8 5 5 6 8 12 12 14 15 16 19 21 21 20 19 18 18 18 18 18 16 15 13 16 16 15 15 15 15 18 19 17 15 14 13 14 15 15 16 16 17 17 16 16 15 16 16 15 15 15 15 15 17 17 16
5 4 3 1 4 5 4 4 4 4 2 6 6 1 7 3 2 4 5 5 6 6 7 10 13 14 12 10 9 9 8 8 8 6 5 6 7 5 4 5 7 11 9 7 9 11 11 9 8 7 7 10 15 18 19 18 19 19 20 21 19 19 19 17 15 17 18 18 18 18 17 18 18 17 15 15 14 14 14 15 16 17 18 17 16 15 14 15 15 15 15 15 14 14 15 16 16
6 5 5 3 1 2 2 3 1 1 4 6 5 1 4 2 1 3 6 7 10 10 9 11 12 12 12 11 9 8 8 8 7 5 5 5 5 5 2 3 7 13 10 5 6 11 15 15 8 7 11 13 16 17 16 17 19 20 22 22 19 18 21 21 19 18 20 21 20 20 20 20 19 18 17 17 16 15 15 16 17 18 17 16 15 15 14 15 15 15 14 14 14 14 14 15 16
5 5 5 4 2 2 1 2 1 1 4 6 4 1 1 2 0 4 5 8 9 10 11 10 11 12 12 11 9 8 8 7 6 5 5 4 3 3 4 6 8 12 11 7 6 9 13 14 9 8 14 18 17 15 15 18 21 22 24 23 20 20 23 23 22 21 20 22 22 22 22 22 21 20 19 19 17 16 16 16 17 17 17 15 14 15 15 15 15 14 13 13 14 15 15 15 15
4 5 6 5 4 4 3 2 2 3 3 5 4 1 3 4 2 4 1 8 10 10 10 10 13 12 10 10 10 9 8 7 5 4 4 3 1 0 3 5 5 7 8 10 9 9 11 11 9 8 12 15 13 13 15 18 21 22 23 22 21 22 23 22 21 21 21 22 22 22 22 22 21 20 20 19 18 17 17 17 17 16 16 15 14 15 16 15 14 13 13 12 13 14 14 14 13
3 3 6 3 5 6 3 3 5 4 0 3 2 1 1 3 4 3 3 10 10 10 12 13 15 12 11 11 11 10 8 7 5 4 3 4 6 6 5 4 4 3 6 12 13 11 9 6 6 7 10 10 7 14 16 17 19 21 22 22 21 21 21 20 19 18 20 22 22 22 21 20 20 20 20 19 19 19 19 18 17 16 16 16 15 15 17 16 14 13 12 11 12 13 13 13 13
1 3 4 4 5 8 4 1 1 3 1 3 1 3 0 2 3 2 6 10 10 11 12 13 13 12 12 10 8 8 8 7 6 6 5 6 8 9 9 7 6 5 5 11 12 11 9 6 4 5 6 5 8 15 19 20 19 21 21 21 21 21 20 18 17 17 17 19 20 21 20 19 20 20 19 19 19 19 19 19 17 17 17 16 15 15 17 16 14 13 12 11 12 12 12 12 12
4 3 5 2 3 5 4 2 2 3 2 5 0 5 4 3 1 2 6 9 10 11 11 11 11 11 10 8 7 8 7 7 7 6 6 6 8 10 10 8 8 7 1 6 9 10 10 8 8 11 12 13 15 19 21 20 19 20 21 21 20 21 19 18 19 19 19 19 19 20 22 21 20 20 20 20 20 19 20 19 18 18 18 16 15 14 16 15 14 12 12 11 11 12 12 11 11
5 5 4 3 3 0 1 2 2 2 3 3 2 2 2 2 2 1 4 7 10 10 10 10 10 9 8 7 8 9 8 7 6 6 5 6 8 10 11 9 7 6 7 6 4 5 8 11 12 12 13 16 16 19 20 19 19 21 23 23 21 21 21 21 21 20 22 23 20 20 24 24 22 23 22 21 20 20 20 19 18 17 16 14 13 13 14 15 14 13 12 11 11 11 11 11 10
2 2 1 2 4 3 2 3 4 4 4 2 2 2 1 3 3 2 4 5 9 10 9 9 10 8 6 5 6 7 7 7 7 7 6 6 8 11 11 11 9 9 10 9 6 5 3 10 12 12 12 17 16 18 20 19 20 23 22 21 21 22 22 21 20 20 22 25 22 20 23 26 25 24 23 22 21 19 19 18 16 16 15 14 14 13 13 14 14 13 13 13 12 12 11 11 10
1 2 1 1 1 2 2 2 2 4 4 3 3 1 3 4 2 3 5 6 9 10 9 8 8 9 7 6 7 7 7 8 8 8 7 8 11 14 14 14 14 13 12 10 8 8 7 8 8 12 19 23 20 21 23 21 22 23 20 19 21 22 21 20 20 22 24 26 23 21 24 26 25 25 25 23 21 19 18 16 15 16 16 15 15 15 14 15 15 15 14 13 13 12 11 10 10
6 4 4 5 4 3 3 2 2 2 4 4 5 3 4 4 0 2 4 6 8 10 11 9 8 9 8 7 8 8 8 8 8 8 8 9 13 16 16 16 17 16 15 13 11 10 9 8 7 8 17 21 22 23 23 21 23 22 19 18 20 21 21 21 22 24 25 25 24 25 26 27 26 25 25 23 21 19 16 15 16 17 16 15 16 16 15 16 16 14 13 13 12 12 12 11 10
Wind_Direction
305 288 359 37 10 21 3 72 65 322 89 277 265 235 255 227 224 271 283 273 205 267 251 261 333 34 104 107 107 76 47 64 87 102 133 120 109 120 137 144 150 154 155 159 162 162 164 161 161 161 159 157 156 154 149 145 145 145 143 141 138 135 133 130 128 126 127 126 123 119 116 115 112 114 112 110 110 109 107 103 100 97 97 96 97 100 104 107 110 117 116 107 103 103 101 100 102
269 248 49 31 4 32 272 86 94 306 46 295 271 200 252 269 230 232 228 184 196 231 244 234 75 79 107 116 99 74 58 60 81 93 119 118 117 139 152 155 160 162 161 161 164 165 165 161 161 161 160 158 157 155 149 145 144 145 144 142 140 137 135 132 130 128 127 125 122 119 117 114 112 116 116 115 115 113 109 106 103 101 100 99 98 98 101 106 110 122 123 119 114 110 108 103 104
223 184 65 28 5 70 87 44 106 185 149 250 274 234 260 289 220 213 216 182 208 224 205 130 78 67 87 81 62 76 83 76 89 98 129 129 125 151 159 161 163 161 159 158 164 165 163 160 160 161 160 158 157 155 148 143 142 145 147 144 143 141 137 135 132 129 127 125 122 120 119 115 115 118 118 119 119 116 112 109 107 106 105 102 101 100 100 101 108 123 126 124 120 116 115 113 111
208 185 50 40 42 46 65 57 150 152 189 222 263 263 263 230 211 221 241 216 237 293 122 88 69 349 63 77 64 74 94 86 91 109 139 174 157 162 164 164 162 158 156 159 163 162 162 160 161 162 161 160 158 156 150 147 147 149 150 149 147 143 139 136 133 131 127 126 125 123 121 117 118 120 121 123 122 119 114 112 111 110 109 105 103 102 101 100 107 124 130 127 124 121 120 119 118
205 212 254 78 82 12 103 143 166 158 207 196 225 277 278 233 227 248 257 247 262 336 86 84 87 9 54 59 51 85 116 106 52 107 139 175 163 163 164 162 159 156 157 160 162 163 163 161 162 163 164 163 160 158 154 152 153 154 154 152 148 143 139 136 135 133 129 127 128 126 123 121 121 124 126 126 124 119 117 118 118 113 111 108 104 102 103 103 109 125 134 131 128 126 124 123 120
175 124 189 105 132 238 129 234 233 230 230 187 242 281 285 277 249 241 253 257 258 196 109 83 105 94 75 47 57 48 224 134 139 155 153 163 161 161 160 158 156 154 157 159 162 164 164 163 163 164 165 165 162 160 156 155 156 156 155 152 146 142 139 139 141 137 132 131 131 128 125 125 126 128 129 128 122 121 122 120 117 113 110 108 105 106 104 104 111 126 136 135 132 131 127 124 121
108 72 107 78 310 330 133 225 227 254 242 193 224 259 271 279 258 250 295 247 284 341 87 94 114 103 81 113 85 1 11 134 156 161 159 161 160 159 157 156 154 154 157 159 162 163 163 165 163 164 165 164 163 161 158 157 158 158 157 153 148 147 146 147 145 140 137 136 133 130 130 130 130 131 132 130 122 123 124 118 115 113 110 109 108 109 105 105 108 121 137 140 137 135 131 126 122
102 71 130 97 351 341 150 257 236 227 243 224 233 248 255 262 252 254 319 206 271 33 90 112 106 90 29 62 94 346 27 127 155 156 158 158 159 159 157 157 155 154 157 160 162 161 163 165 163 164 164 164 164 162 161 159 160 161 160 157 154 154 153 153 149 144 141 139 136 134 136 135 134 133 136 134 126 125 124 120 120 117 115 117 116 112 108 104 103 112 132 144 143 139 135 128 118
114 109 43 98 127 310 287 280 258 230 245 256 262 259 252 245 234 176 281 311 42 61 87 122 93 93 90 72 90 307 34 125 147 151 156 158 160 158 158 161 158 156 159 161 162 161 163 165 165 165 165 166 166 164 163 161 162 164 164 161 159 159 158 156 152 148 145 142 139 139 142 140 138 138 139 139 133 129 126 126 124 120 121 123 119 112 108 102 101 108 123 141 146 142 137 126 111
78 135 129 102 122 318 293 264 248 248 246 250 257 255 249 236 212 129 260 314 60 73 80 83 79 104 116 89 90 288 100 133 143 149 156 157 157 158 159 162 160 159 161 162 162 163 164 166 167 167 168 168 167 166 164 164 165 166 166 164 163 162 160 159 155 151 148 145 142 142 146 144 143 143 142 142 138 133 130 129 126 124 124 122 115 108 105 100 100 107 119 135 143 142 134 119 108
37 300 149 124 92 202 258 256 254 264 267 260 255 250 243 237 114 33 312 353 61 99 111 82 80 104 96 91 92 70 137 143 148 151 156 155 155 159 160 160 161 162 162 162 162 162 162 165 169 170 170 170 169 168 167 167 167 167 166 166 166 164 163 162 157 154 152 149 146 145 146 145 147 147 144 144 141 137 135 133 129 129 127 120 114 109 105 102 102 107 119 131 139 137 126 116 105
77 298 97 133 203 200 228 254 274 279 285 272 250 263 253 43 77 243 295 70 74 91 119 108 123 118 90 103 114 117 151 156 157 152 157 157 156 158 159 159 160 162 162 162 160 160 162 165 169 171 172 171 171 170 170 170 169 168 167 168 168 166 165 162 160 159 157 152 147 145 146 147 149 150 148 148 145 142 143 140 137 135 128 120 116 111 106 104 104 109 122 131 135 131 121 112 98
138 191 98 151 216 201 255 267 282 290 295 269 223 276 298 86 137 209 169 85 86 81 87 121 138 118 99 129 119 155 183 163 155 151 158 158 157 155 156 158 158 159 159 159 158 160 163 166 170 172 173 173 173 173 173 173 172 172 171 171 169 167 164 162 164 162 158 152 148 146 148 150 151 152 150 152 150 146 148 145 142 138 127 121 117 113 108 108 107 111 125 132 133 129 120 109 98
178 187 116 233 256 228 268 268 279 274 282 275 250 297 311 115 183 204 82 67 51 91 110 119 125 101 106 141 128 187 190 165 154 152 157 154 155 153 153 155 155 155 154 156 158 162 165 168 172 172 173 173 173 174 175 176 174 174 173 172 169 167 164 163 164 160 156 153 150 149 152 154 153 153 151 155 155 151 153 149 145 139 126 123 120 115 112 112 111 116 129 134 134 129 121 112 101
179 201 115 204 295 293 256 239 255 236 255 282 280 300 349 321 50 23 68 94 35 74 109 109 113 99 150 168 169 192 176 164 155 151 153 149 150 150 151 151 151 152 152 156 158 163 167 170 173 172 174 173 173 174 175 176 174 174 172 171 168 165 164 163 162 159 156 154 151 150 155 157 155 153 152 159 161 155 156 155 152 142 127 127 125 119 117 118 114 119 132 138 137 132 123 115 102
172 137 98 233 261 274 251 239 257 198 244 259 274 18 69 322 14 32 17 108 70 22 74 81 333 93 165 170 158 162 160 157 150 147 145 142 144 145 147 147 149 152 154 159 159 164 168 171 172 172 175 174 173 174 174 175 173 173 172 170 168 166 164 162 160 158 156 154 151 152 156 159 157 155 153 161 165 160 159 158 157 145 130 131 129 124 121 123 120 121 134 143 142 136 127 117 102
138 138 199 252 236 245 242 234 323 105 260 274 340 33 70 329 2 62 49 80 88 62 58 49 18 58 127 122 131 142 147 149 144 141 137 136 139 139 143 146 150 154 158 163 164 167 169 170 171 172 175 175 175 174 174 174 173 174 172 170 169 168 165 162 160 157 156 154 153 154 157 162 162 159 157 163 166 165 163 159 159 148 135 135 134 130 127 127 127 125 133 145 147 139 130 118 103
143 161 203 234 225 225 209 223 294 315 273 296 357 48 62 351 335 81 62 71 85 77 62 65 57 57 84 104 124 134 141 144 142 139 134 136 139 141 146 150 154 156 160 165 168 172 171 169 171 173 172 173 175 175 175 174 174 175 172 172 170 170 167 163 162 160 158 156 156 157 160 165 166 164 163 165 169 170 168 164 166 154 140 140 139 137 132 131 134 132 132 142 147 141 131 120 106
169 172 195 226 217 225 217 232 294 298 226 307 348 51 53 336 272 95 85 104 99 85 64 74 81 79 89 105 123 134 141 143 144 141 139 145 149 152 156 160 162 162 163 165 170 176 176 171 172 173 169 170 174 176 176 175 177 176 174 174 171 170 169 167 166 165 163 160 160 161 163 168 170 169 169 170 170 171 171 174 173 157 146 146 145 143 139 135 136 137 135 139 143 140 130 119 112
187 180 213 241 226 263 269 232 271 264 198 75 330 31 44 316 297 82 115 122 98 114 120 104 112 122 118 120 129 137 143 142 143 141 140 150 158 164 166 168 170 168 168 167 170 176 179 176 173 172 169 170 174 177 178 178 181 180 177 177 175 172 172 172 171 169 168 166 164 163 162 167 173 171 171 174 173 171 170 176 181 164 153 151 150 150 147 140 137 139 140 142 143 141 133 123 120
200 185 210 235 220 269 270 251 260 252 176 106 323 32 35 313 319 96 129 106 81 163 165 149 146 143 141 146 144 145 145 138 138 142 148 158 169 174 173 171 171 172 171 171 172 174 177 178 174 171 172 175 177 181 182 183 185 184 182 181 179 174 175 177 175 174 172 170 168 165 161 164 173 172 173 175 175 174 170 176 186 176 162 155 154 156 154 147 140 139 142 145 145 143 140 133 128
248 232 220 228 216 252 264 255 249 254 54 47 12 30 17 321 321 340 118 128 198 192 173 154 150 151 153 156 153 149 142 138 145 153 161 166 170 173 176 173 172 176 176 176 174 173 175 175 175 174 178 183 184 187 187 188 188 188 186 184 181 179 180 181 179 178 175 173 170 168 164 163 171 175 177 177 177 179 176 180 188 185 177 163 158 161 160 155 146 142 142 144 144 144 143 140 137
236 265 242 233 218 228 259 242 216 211 85 72 22 3 347 22 323 304 62 158 190 145 148 150 150 153 152 151 150 146 143 151 159 163 167 166 170 176 178 176 175 179 179 179 177 175 175 174 179 183 184 187 188 191 191 190 190 191 188 184 183 183 184 183 182 180 177 176 172 171 169 165 170 178 180 178 179 182 182 184 188 189 188 179 168 166 166 161 154 150 148 148 145 145 147 157 176
212 250 248 239 223 221 247 230 209 184 141 178 174 120 24 58 299 318 31 78 128 124 141 145 145 145 143 146 148 147 148 156 162 166 169 170 176 180 178 176 177 179 179 180 181 180 179 179 185 190 190 189 189 191 192 192 193 192 189 185 185 185 185 185 183 181 180 177 174 176 175 170 173 179 180 179 179 179 179 180 182 184 186 186 179 172 172 166 160 158 156 153 148 151 166 190 199
211 231 241 239 229 221 233 226 214 202 172 177 143 140 229 202 227 322 84 115 114 123 134 135 136 137 140 148 149 147 146 147 154 161 166 167 171 175 174 174 177 181 181 182 185 186 185 185 189 194 193 191 190 190 191 193 193 192 190 188 187 185 184 183 182 182 182 179 177 181 182 179 178 179 179 179 180 176 176 178 178 178 178 182 181 178 176 170 167 166 162 157 155 166 190 207 205
215 220 236 240 241 234 236 234 215 216 206 158 135 190 257 238 169 289 161 126 118 124 131 136 137 139 144 149 147 143 141 149 159 157 158 159 160 165 170 175 180 185 186 187 191 193 192 191 192 194 192 190 189 188 189 191 193 193 191 190 187 186 185 183 182 183 183 181 182 185 187 187 182 180 179 179 180 177 178 180 180 178 175 175 177 175 173 172 173 170 165 164 168 180 204 225 222
251 242 248 239 242 246 234 232 225 226 220 165 141 197 263 259 165 265 165 135 132 129 134 140 138 142 147 147 145 141 143 159 164 153 150 159 163 165 169 177 182 186 189 191 195 198 197 194 192 191 190 189 188 189 190 191 193 192 192 192 188 189 190 188 187 186 185 186 186 186 190 190 184 182 182 180 181 181 181 182 182 182 177 170 166 162 161 161 160 161 162 168 177 187 206 220 218
297 269 271 257 252 264 238 222 233 233 237 171 138 192 259 255 180 222 168 146 139 134 136 138 140 144 142 142 144 143 148 160 161 155 159 171 174 172 172 179 181 185 191 194 197 199 197 193 190 189 189 189 189 189 190 192 192 191 196 197 191 194 198 197 195 190 189 191 189 184 184 184 182 184 185 183 183 185 185 184 185 188 186 173 162 158 154 147 151 162 167 172 181 190 198 197 193
292 261 264 284 322 307 253 228 209 153 211 179 132 299 291 245 229 206 158 151 140 135 137 142 148 147 142 140 138 138 146 154 161 167 174 176 178 178 177 183 185 187 192 197 199 197 195 191 189 190 191 191 188 188 191 192 191 194 201 201 198 200 205 204 198 195 194 194 193 184 179 180 181 184 187 187 186 188 190 187 189 195 193 180 167 167 164 158 173 180 171 172 175 179 187 185 183
283 272 217 292 354 321 249 213 185 161 202 176 128 334 281 250 252 214 153 154 143 139 146 150 155 153 150 141 130 135 143 153 166 173 177 174 176 179 180 186 190 190 192 195 196 193 191 188 187 191 193 193 191 192 194 192 195 199 201 206 207 206 210 209 199 199 201 198 195 187 181 181 184 188 188 188 188 191 195 192 189 189 189 185 175 169 162 162 175 174 166 171 167 162 172 179 181
280 304 328 34 337 284 251 180 169 193 218 152 120 224 256 263 265 224 156 160 152 149 157 153 161 162 154 141 133 141 146 156 165 165 168 169 170 176 179 185 191 192 190 191 192 190 189 186 188 192 194 196 196 196 194 191 198 202 202 206 209 208 214 215 209 210 211 204 198 192 188 187 187 191 191 189 189 196 200 192 186 178 178 183 175 163 152 158 169 164 163 174 164 154 166 174 178
312 258 313 341 191 264 308 250 177 190 247 140 130 217 264 265 256 228 162 168 158 150 158 157 167 164 153 148 141 145 139 143 150 151 157 163 168 175 180 186 190 191 190 190 190 189 186 184 189 193 196 200 197 192 190 190 195 201 205 203 202 206 212 216 218 220 218 209 202 197 195 195 194 193 193 192 191 196 198 192 188 181 174 175 171 163 159 172 180 168 168 183 169 157 170 172 173
340 151 233 242 193 267 321 289 202 188 211 172 170 205 276 263 253 249 155 170 160 150 159 163 171 165 154 152 141 142 128 123 134 143 152 159 169 177 183 188 188 190 193 193 191 188 183 181 191 197 199 200 192 179 182 189 194 201 207 202 198 205 209 211 215 219 218 210 204 199 197 199 199 197 198 198 195 194 194 191 187 178 171 168 164 164 173 185 186 171 168 177 170 163 168 164 161
302 349 244 246 216 197 255 301 252 182 181 200 202 202 243 254 268 338 171 172 158 151 161 165 171 166 160 152 139 139 134 133 139 146 151 157 167 177 183 186 186 190 195 196 192 187 182 186 198 200 196 194 182 169 177 193 199 203 210 206 201 207 211 212 214 215 213 208 205 200 197 197 197 197 199 200 198 194 188 184 177 170 170 167 160 162 175 184 183 173 164 160 163 168 165 154 149
217 193 243 278 290 252 246 287 273 176 177 197 200 208 245 262 297 345 171 165 156 155 162 167 169 166 164 143 132 137 136 140 150 152 154 158 166 175 181 182 184 190 193 192 189 187 187 192 200 198 187 181 174 171 181 194 199 203 209 208 207 209 208 209 210 210 209 206 205 202 197 194 193 191 190 191 192 188 182 177 171 170 174 173 168 165 170 180 182 179 165 157 166 176 173 162 154
192 206 198 261 302 295 246 259 251 176 171 190 187 201 235 260 294 343 106 135 147 162 161 162 163 157 146 126 129 140 140 148 158 156 155 160 168 175 178 177 182 190 190 187 188 191 190 190 194 193 180 174 175 181 187 188 191 199 204 206 210 208 201 200 202 204 207 207 205 201 198 195 192 188 184 184 186 185 180 175 171 172 176 178 178 173 172 181 186 178 162 159 167 174 175 166 160
287 300 290 278 292 283 262 268 252 174 160 193 184 191 232 258 282 269 159 119 110 159 159 155 158 152 144 137 139 145 146 154 159 156 157 163 171 175 173 173 177 184 187 187 191 195 192 186 186 185 179 177 182 189 193 189 187 193 200 204 210 210 204 202 202 202 204 206 204 201 199 195 191 189 187 184 185 186 180 175 173 173 177 183 187 181 175 179 186 178 158 156 165 167 165 166 166
263 270 280 288 282 266 279 285 249 164 145 194 182 174 235 257 260 237 156 135 142 166 167 165 168 165 152 141 140 145 144 148 155 156 160 168 174 174 171 172 177 182 185 189 195 198 193 187 183 180 176 178 185 191 193 192 191 194 200 203 207 211 211 208 208 206 202 204 205 203 199 195 191 190 192 191 189 188 182 178 178 177 181 189 189 182 178 176 180 180 162 155 162 166 163 166 171
254 260 277 289 273 270 296 314 351 93 119 176 181 168 229 265 271 252 150 150 168 173 175 176 174 169 156 145 145 148 147 154 165 165 170 176 179 178 173 176 182 184 186 191 198 199 195 190 185 180 176 177 187 193 192 194 198 200 199 201 204 210 211 208 209 207 202 201 202 204 201 198 196 195 195 195 192 191 188 184 182 183 186 191 188 180 179 178 178 181 171 160 163 167 163 167 175
253 250 261 272 272 274 285 317 360 12 102 150 154 164 253 302 329 315 209 160 178 182 184 183 176 172 167 160 156 158 159 165 173 174 178 182 184 184 179 180 183 184 186 192 196 198 196 193 189 183 178 180 189 194 196 199 205 206 200 199 205 211 210 206 205 205 203 201 199 202 203 200 200 199 197 196 195 193 192 190 187 187 188 190 192 186 181 180 179 180 174 166 166 165 161 170 182
255 235 227 250 266 239 215 310 351 355 7 68 93 59 318 335 348 307 312 89 180 192 188 192 200 186 163 158 163 168 168 169 174 178 182 186 189 190 186 185 185 186 190 193 195 195 193 193 195 189 182 184 189 193 198 203 207 210 205 199 203 209 208 203 203 205 204 201 200 201 203 202 200 197 196 197 195 194 193 192 190 190 190 190 193 191 186 183 181 180 177 173 171 167 164 175 185
264 240 218 222 238 226 187 43 27 15 352 332 91 70 302 321 333 284 297 359 316 201 198 200 209 198 155 161 174 177 172 170 175 178 180 183 187 191 191 192 192 194 197 196 195 194 192 194 198 195 188 187 189 190 196 202 207 211 207 200 202 204 202 202 204 205 205 203 204 205 203 201 198 193 195 197 195 194 191 189 191 192 192 190 189 190 189 186 181 180 181 180 177 171 168 176 187
247 242 210 198 224 264 113 87 80 48 289 282 85 116 247 316 315 272 287 330 4 160 221 227 210 201 189 182 175 169 170 171 176 181 181 182 182 188 197 201 202 204 205 203 201 197 195 198 199 198 193 190 190 190 193 199 203 207 208 205 206 206 203 206 208 206 207 207 207 208 206 201 197 193 194 194 192 191 189 188 193 193 190 189 185 183 184 183 181 181 182 184 181 173 171 179 190
231 240 196 162 283 300 340 97 116 194 229 322 1 119 137 305 278 282 331 353 360 41 234 243 215 200 198 181 151 160 180 179 175 176 175 165 140 74 296 248 245 305 351 328 240 213 206 209 207 201 196 191 191 191 192 198 201 204 207 206 207 214 214 211 207 206 208 210 209 209 207 201 196 194 193 192 190 189 188 189 193 193 189 185 179 176 176 175 176 178 180 185 186 182 181 184 187
236 232 207 186 208 256 330 98 132 195 108 342 313 80 101 268 283 325 25 45 353 343 327 287 235 202 185 163 147 165 178 144 98 92 64 52 53 41 25 1 349 360 5 358 333 274 239 232 221 208 199 192 191 191 191 194 199 201 202 201 206 222 230 217 207 207 208 210 213 210 206 201 197 196 195 194 192 189 190 193 193 192 188 181 174 174 175 174 176 178 180 184 187 189 192 192 187
226 196 186 355 42 44 45 96 122 48 65 251 274 9 93 276 316 343 13 35 339 323 328 324 312 156 138 123 116 117 95 73 68 73 75 80 82 81 83 72 348 338 344 352 352 333 297 270 239 216 206 198 193 194 191 185 186 194 197 198 205 217 230 227 210 204 204 204 210 207 200 198 198 199 198 196 195 192 193 196 194 191 188 180 174 174 176 179 182 182 182 183 186 193 197 197 192
175 131 111 9 4 27 42 62 85 53 21 253 258 66 96 81 323 338 351 347 329 328 342 6 35 54 58 54 61 68 72 80 84 83 79 81 86 98 127 153 197 222 231 245 300 315 312 302 266 219 204 198 196 195 188 177 175 189 201 202 202 205 216 226 211 197 196 196 202 203 195 195 199 202 201 197 197 197 196 195 193 190 187 182 177 176 178 181 184 185 186 186 189 194 197 197 194
108 92 105 58 342 8 21 354 38 70 283 262 257 113 92 103 284 330 354 3 21 26 23 34 46 51 51 50 52 62 74 77 73 68 63 66 73 92 146 186 214 224 223 223 239 237 233 259 282 259 218 190 195 198 187 180 182 194 208 209 205 202 207 216 211 199 194 192 196 198 193 195 200 202 202 200 198 198 196 191 189 187 186 184 180 177 180 180 182 186 189 190 192 193 194 195 194
95 83 88 101 321 353 349 312 13 141 248 261 251 131 87 128 209 359 15 32 38 46 51 48 50 50 50 51 50 55 63 64 63 57 49 45 37 46 103 188 233 243 240 231 252 249 235 228 227 259 243 211 206 207 191 188 198 203 206 204 200 203 207 210 211 207 200 195 194 195 195 195 196 199 201 199 194 189 188 185 183 184 184 182 179 179 184 184 184 186 187 188 191 191 191 191 193
122 129 121 131 136 103 242 276 15 228 259 275 277 107 123 182 164 347 22 57 51 55 59 55 57 56 54 54 52 55 57 58 66 61 55 52 28 60 140 178 220 242 234 215 247 265 256 246 226 218 227 219 216 211 198 202 209 206 201 196 191 198 207 208 206 208 205 200 198 198 198 193 191 195 194 188 183 179 177 176 175 176 176 175 177 182 186 187 188 189 186 186 189 189 189 190 193
165 160 130 145 155 137 191 208 158 219 267 294 290 152 164 160 169 263 51 70 59 59 58 57 62 61 62 59 50 48 44 41 51 52 58 55 7 273 212 212 226 246 223 202 218 236 240 254 253 219 221 229 214 188 190 207 212 208 202 195 190 196 207 207 203 207 206 203 202 200 197 194 191 189 183 177 174 171 169 168 167 168 169 168 173 181 183 184 186 184 177 177 182 184 185 187 192
226 144 108 151 181 146 153 171 162 177 215 323 299 130 204 137 140 196 97 69 60 61 57 58 63 62 64 60 53 50 43 35 29 22 22 3 349 343 326 290 252 249 198 190 201 208 203 223 253 239 246 253 195 166 187 206 211 214 207 196 193 198 205 205 204 206 206 204 204 201 199 196 190 183 177 172 169 167 166 167 169 172 173 170 171 177 177 175 173 171 167 166 173 179 182 185 193
226 113 141 202 170 136 136 198 135 108 139 279 243 116 60 80 106 59 57 63 64 65 63 67 69 66 65 60 56 56 51 48 41 29 18 358 352 355 352 336 295 270 174 167 182 188 182 190 212 207 230 231 168 183 208 212 208 213 210 198 196 199 198 199 200 201 204 206 204 204 202 195 185 179 178 175 170 171 171 167 164 164 167 166 165 172 174 172 170 170 171 171 174 180 184 187 196
119 162 198 172 94 101 110 148 18 64 184 266 274 142 166 148 163 344 40 65 73 72 75 77 72 70 70 64 63 63 59 58 52 45 33 13 7 5 1 353 322 300 272 128 149 165 169 181 184 177 185 189 189 204 214 213 209 207 204 199 196 199 194 192 195 194 197 202 202 203 197 187 181 176 174 173 171 173 173 168 163 158 159 158 156 163 170 174 178 179 180 180 182 185 186 191 199
128 172 185 110 115 163 65 143 144 124 190 256 22 98 162 163 213 324 55 84 91 86 85 81 72 71 71 66 65 64 64 62 53 49 38 19 13 4 0 3 356 345 357 31 91 151 172 176 167 167 191 195 198 211 207 203 210 207 202 198 195 196 193 191 195 192 193 194 194 197 189 179 176 174 171 168 166 167 169 170 170 166 164 162 157 156 162 173 181 183 179 177 181 183 180 180 182
73 131 75 91 141 163 182 170 156 159 194 207 89 44 303 227 225 156 110 108 104 97 88 81 76 70 62 61 65 58 56 54 45 43 32 19 14 10 15 20 22 26 18 15 12 348 254 198 168 144 175 188 188 204 200 194 206 207 200 195 192 193 191 192 195 190 188 184 184 197 189 176 175 174 172 171 169 170 171 173 176 178 177 171 162 157 158 166 171 167 162 160 167 172 171 170 169
137 144 163 192 157 148 178 180 145 145 164 177 144 150 264 255 231 135 124 111 106 102 94 90 87 79 60 55 64 58 51 45 40 39 30 23 20 16 24 28 28 33 29 22 11 352 324 265 223 156 169 182 182 191 193 192 201 203 197 192 190 189 190 194 191 183 183 177 178 197 192 176 174 174 173 176 176 176 176 177 179 180 177 171 166 162 158 158 156 154 156 160 164 170 172 173 172
156 170 185 187 184 152 151 238 284 114 141 169 152 163 257 267 174 131 119 109 109 107 105 102 91 81 67 56 61 60 54 45 38 38 31 28 25 20 22 25 29 34 29 27 25 15 10 339 290 190 178 184 182 185 189 192 196 197 196 194 192 191 192 193 184 179 184 179 177 191 188 176 172 173 174 177 175 174 176 177 174 170 169 169 169 168 162 158 157 158 165 171 174 179 182 179 178
Height
784 785 784 785 785 785 787 787 799 801 803 813 808 803 789 775 773 770 768 761 759 753 743 744 743 740 746 758 762 763 764 768 771 779 798 792 778 780 777 776 779 780 780 781 781 782 783 784 785 785 786 787 789 789 791 792 795 796 798 799 800 801 802 804 804 805 805 806 807 808 809 810 811 812 814 815 817 818 819 820 820 821 821 821 822 822 822 823 823 823 823 824 825 825 826 826 827
784 785 784 785 784 787 790 789 805 810 811 815 804 798 783 772 774 769 765 760 757 748 740 743 745 746 747 751 751 758 771 771 766 773 784 779 775 777 773 771 769 770 772 775 779 780 781 783 784 785 786 787 788 789 790 792 795 797 799 800 801 802 803 804 805 806 806 807 808 809 810 811 813 813 814 816 817 819 820 821 821 822 822 823 823 823 823 823 823 824 824 825 826 826 827 827 828
784 785 784 786 785 787 791 793 807 814 815 815 800 789 778 775 771 763 758 751 747 741 741 743 747 752 750 755 755 763 780 775 768 771 776 775 773 773 772 769 768 771 773 776 779 781 783 784 786 787 787 788 789 790 791 793 795 797 799 801 802 803 804 805 806 807 807 808 809 810 811 812 813 814 815 816 818 819 820 821 822 823 823 824 824 824 824 824 824 824 825 826 827 827 828 828 829
784 785 785 785 788 791 794 800 807 811 815 813 799 780 773 773 764 759 753 745 741 738 741 745 753 753 750 763 762 766 779 776 771 770 774 773 768 769 769 769 770 772 774 776 778 781 783 784 787 788 788 788 789 790 791 793 795 797 798 800 802 803 804 805 807 807 808 809 809 810 811 813 814 815 816 817 819 820 821 822 823 823 824 824 825 825 825 825 825 825 826 827 828 829 829 830 830
784 785 785 785 791 793 795 802 803 807 809 805 796 777 769 767 760 758 751 744 741 739 740 745 758 755 752 763 763 772 780 776 775 770 771 769 765 767 768 771 772 772 774 775 777 779 780 782 784 786 787 787 788 789 790 792 794 796 798 800 802 803 805 806 807 808 809 809 810 811 812 814 815 816 817 818 819 820 822 822 823 824 824 825 825 826 825 825 825 826 827 828 829 830 830 831 832
783 784 785 786 789 790 797 805 804 806 798 793 793 777 767 763 759 756 750 746 740 738 739 745 756 758 763 767 765 772 774 773 775 770 766 765 765 769 770 772 772 773 774 775 777 777 778 780 781 784 785 786 788 789 790 792 793 796 798 800 802 803 805 806 807 808 809 810 810 812 813 814 816 817 818 819 820 821 822 823 824 824 825 826 826 826 826 826 826 827 828 829 830 831 832 832 833
783 785 787 789 790 791 803 808 805 806 791 784 786 775 767 761 756 753 751 749 744 741 742 749 750 759 774 770 769 773 768 769 769 766 764 764 768 770 772 773 772 773 774 776 778 778 779 780 781 783 784 786 787 789 791 792 794 795 798 799 801 803 804 805 806 807 808 810 811 812 813 815 816 818 819 820 821 822 823 824 825 825 826 827 827 827 827 827 828 829 829 830 831 832 833 834 834
782 786 787 793 797 797 804 805 802 801 788 778 776 770 765 759 754 751 751 750 749 746 748 753 746 763 781 769 776 778 768 769 765 766 766 767 770 772 774 774 773 773 774 776 778 780 781 782 783 784 785 786 787 789 790 792 794 795 797 798 800 801 803 804 805 806 807 809 811 812 814 815 817 818 819 820 821 822 823 824 825 826 826 827 827 828 828 829 829 830 831 831 832 833 834 835 835
782 786 788 794 800 802 804 804 799 793 784 777 771 765 760 755 751 749 750 749 749 749 754 753 745 766 783 775 782 779 770 771 767 769 768 769 771 772 774 773 772 773 774 775 777 779 781 783 784 785 785 786 787 788 790 792 793 794 796 798 799 801 802 804 805 806 807 809 811 813 814 815 817 818 820 821 822 823 824 825 825 826 827 827 828 828 829 829 830 831 832 833 833 834 835 836 836
783 786 789 795 802 808 808 804 798 788 779 774 767 760 756 751 748 748 750 750 749 755 757 751 751 768 780 781 784 778 773 773 770 771 771 772 772 773 774 773 773 772 775 776 778 779 781 784 784 786 786 786 787 788 790 791 792 794 796 797 800 801 803 804 805 807 807 809 811 813 814 816 817 818 820 821 822 823 824 825 826 827 827 828 828 829 829 830 831 832 832 834 834 835 836 837 838
787 788 789 798 805 810 807 802 796 786 776 769 763 754 751 748 748 750 750 751 750 756 756 751 764 772 776 783 784 779 776 775 773 772 773 774 774 775 774 774 774 774 775 777 779 781 782 785 786 787 787 788 788 788 790 791 792 794 795 797 799 801 803 804 806 807 808 809 811 813 815 816 818 819 821 822 823 824 825 826 826 827 827 828 828 829 830 831 832 832 833 834 835 836 837 838 838
791 790 790 802 806 805 801 799 794 784 775 768 761 750 747 747 750 753 750 754 751 755 753 751 765 768 777 787 783 780 778 777 775 773 775 776 776 777 777 776 776 776 778 779 781 783 784 786 787 788 789 789 789 790 790 791 792 793 795 796 798 800 801 804 805 807 808 810 811 813 815 817 818 820 821 822 823 824 825 826 827 827 828 828 829 829 830 831 832 833 834 835 836 837 838 839 839
790 790 793 802 800 798 797 796 790 784 776 765 758 749 746 748 751 752 750 755 752 756 755 749 755 761 778 786 781 782 779 777 776 775 776 776 778 778 779 778 778 779 781 782 783 785 786 787 788 789 790 791 791 791 792 792 793 794 795 796 797 799 801 803 804 806 808 810 812 813 815 817 818 820 821 822 824 825 826 827 827 828 828 829 829 830 831 832 833 834 834 835 836 837 839 839 840
786 786 791 799 795 794 794 792 787 784 777 761 755 749 746 748 748 746 747 756 755 754 753 746 749 761 779 784 783 783 778 777 776 776 777 778 779 779 780 780 780 782 783 785 785 786 787 788 789 790 792 793 793 793 794 795 795 796 797 797 799 800 801 803 804 806 808 810 812 813 815 817 818 820 821 823 824 825 826 827 828 829 829 830 830 830 831 832 833 834 835 836 837 838 839 840 841
782 782 788 796 796 795 791 788 784 783 777 760 755 750 748 747 743 744 746 757 758 749 748 748 748 759 773 777 780 777 774 776 775 776 777 778 780 780 782 782 782 783 784 786 786 787 788 789 790 792 793 794 795 795 796 797 798 799 800 801 802 803 804 805 806 807 808 810 811 813 815 816 818 820 821 822 824 825 826 827 828 829 830 830 831 831 832 833 834 834 835 837 838 839 840 841 841
778 781 789 796 797 798 791 784 781 782 775 759 753 749 751 749 743 749 746 748 757 751 751 755 751 754 763 765 767 768 771 775 775 777 777 779 781 782 783 782 784 784 785 786 787 788 789 791 791 793 794 795 796 796 798 799 800 800 801 803 804 805 806 807 808 809 810 811 812 813 815 816 818 819 821 822 824 825 826 827 829 830 831 831 831 832 833 834 834 835 836 837 838 839 840 841 841
776 782 793 798 797 797 788 780 778 776 768 758 753 749 755 754 747 751 746 744 756 758 757 759 754 752 759 762 762 766 772 775 776 778 778 780 781 782 784 784 784 784 786 786 787 788 789 791 791 793 794 795 797 797 799 800 801 802 803 805 806 807 808 809 810 811 812 813 813 814 816 817 818 819 820 822 823 825 826 828 829 830 831 831 832 832 833 834 835 836 836 837 839 840 840 841 841
779 786 795 799 796 791 780 775 772 769 765 759 755 754 756 757 753 751 751 755 759 762 762 761 759 759 762 763 765 770 774 776 777 778 779 781 782 783 784 784 785 785 786 786 788 789 790 791 792 793 794 796 798 799 800 801 803 803 804 806 807 808 809 810 810 812 813 814 815 815 817 818 818 819 820 821 823 824 826 828 829 830 831 831 832 833 834 834 835 836 837 838 839 840 841 841 842
779 785 792 793 787 779 771 769 767 764 764 758 755 756 755 755 753 750 758 767 762 766 771 766 767 768 768 768 770 773 775 777 778 778 780 781 781 782 783 784 784 785 786 787 788 790 791 792 793 794 795 797 799 800 802 802 804 804 806 807 808 809 810 810 811 812 814 814 815 816 818 819 820 820 820 821 822 824 826 828 829 830 831 831 832 833 834 835 836 837 838 839 840 841 842 842 842
776 781 789 785 776 772 766 765 764 760 758 757 756 755 755 753 749 750 761 768 765 768 772 770 773 773 772 772 773 775 777 779 780 780 781 782 782 781 781 782 783 785 787 788 789 791 792 793 794 796 797 799 800 801 802 803 804 805 807 807 808 809 810 811 812 813 814 815 816 816 818 820 821 821 821 822 822 824 825 827 829 830 831 831 832 833 834 835 836 837 838 839 840 841 842 842 843
773 776 783 776 770 770 764 761 761 757 754 755 756 755 757 752 747 752 761 768 771 769 764 764 769 770 772 773 773 775 778 779 781 781 780 780 781 781 782 783 784 786 787 789 790 791 793 794 795 797 798 799 800 801 802 803 804 805 806 807 808 809 810 811 812 813 814 815 816 817 818 819 822 821 821 821 822 823 825 827 828 829 831 831 832 833 834 835 836 838 839 840 841 842 842 843 843
773 771 772 768 768 770 761 758 760 756 753 755 756 757 757 752 749 752 757 764 766 763 758 758 761 764 767 769 771 774 777 779 779 779 779 779 780 782 783 784 785 786 788 789 790 792 794 795 796 797 799 799 800 800 801 802 803 805 806 807 808 809 811 811 813 814 814 816 817 818 818 818 821 822 821 821 822 823 824 826 827 829 830 831 832 833 834 836 837 838 839 840 841 842 843 843 844
775 772 766 764 765 766 759 756 757 754 755 757 757 756 754 756 755 750 752 757 754 752 754 756 757 759 763 767 771 774 776 777 776 777 778 779 781 782 783 784 785 786 788 790 791 793 794 796 797 797 798 798 799 799 801 802 803 804 805 807 809 809 811 812 813 814 815 816 817 818 818 818 820 822 821 821 822 823 824 826 827 829 830 830 831 833 834 836 837 838 839 840 841 842 843 843 844
774 773 765 761 760 761 757 755 755 752 754 755 753 754 754 759 759 752 753 754 749 750 752 754 757 759 763 767 771 774 775 775 775 777 778 779 780 780 782 784 786 787 788 790 792 793 795 796 796 797 797 797 798 799 801 803 804 805 806 808 809 810 811 812 813 814 815 816 817 818 819 818 819 821 821 821 822 823 825 826 827 828 829 830 831 833 834 836 837 838 839 840 841 842 842 843 843
770 770 763 758 757 756 753 753 754 752 752 751 751 755 755 756 756 754 757 755 750 751 754 756 758 761 765 767 770 772 774 775 776 778 778 779 780 782 784 785 787 788 789 790 792 793 794 795 795 796 796 797 799 801 803 804 805 806 807 808 809 811 811 812 814 814 815 816 817 818 818 819 819 820 821 821 822 823 825 826 827 828 829 830 831 832 834 835 837 838 839 840 840 841 842 843 843
764 763 760 757 755 752 751 752 753 752 750 750 753 757 754 751 754 756 757 755 752 753 756 758 759 763 766 767 770 771 773 775 776 777 779 780 781 783 784 785 786 788 789 790 791 792 793 794 795 796 797 799 801 802 804 805 807 808 808 810 811 812 812 813 814 814 815 816 817 817 818 819 819 819 820 821 822 823 824 826 827 828 829 830 830 832 833 835 836 837 839 839 840 841 842 843 843
758 758 757 755 754 750 750 751 751 751 750 749 753 758 754 751 756 760 758 753 752 755 759 760 761 764 766 767 769 771 774 774 774 777 779 781 781 782 783 784 785 786 788 789 789 790 791 792 794 796 799 800 802 803 804 805 807 809 811 812 812 813 813 813 814 814 816 816 816 817 818 819 819 819 820 821 821 822 824 825 827 828 829 830 831 832 833 835 836 837 838 839 839 840 842 842 843
756 756 756 753 752 751 750 750 750 750 751 748 750 755 754 753 757 759 757 754 753 757 762 763 764 765 765 767 768 770 772 773 775 776 778 779 780 781 782 782 784 785 786 786 787 788 789 792 795 798 799 800 802 803 804 805 807 810 812 812 811 812 813 813 813 814 815 817 817 816 817 818 818 819 820 821 821 822 823 825 827 828 829 830 831 833 834 835 836 837 838 838 839 840 841 842 843
755 755 759 756 752 752 750 749 749 749 751 746 748 760 761 758 757 754 754 754 754 759 763 765 766 766 765 765 766 768 771 772 774 775 775 776 777 778 780 781 782 783 784 785 785 787 789 791 794 797 799 800 801 803 805 808 809 810 811 811 811 810 812 813 812 814 815 816 817 816 816 816 817 819 820 821 821 822 823 824 827 828 829 830 831 832 834 835 836 837 838 838 839 840 841 842 843
756 754 758 758 759 758 749 747 748 748 751 743 751 772 769 758 754 751 753 754 757 762 764 766 767 766 766 764 764 767 769 771 772 773 774 775 777 777 778 779 780 781 782 783 784 786 788 791 793 795 797 798 799 802 804 808 811 811 810 812 812 811 813 815 814 815 815 814 815 815 815 816 817 819 820 821 821 822 823 825 826 827 829 830 831 832 833 834 835 836 837 838 839 840 841 842 843
758 758 758 761 768 763 748 746 749 751 750 741 753 775 769 757 752 750 753 753 756 763 765 766 767 766 765 763 764 766 768 769 770 772 773 774 776 777 777 778 779 779 780 782 783 785 787 789 790 791 793 793 794 797 801 806 810 811 811 812 813 813 815 816 816 816 815 815 814 814 815 816 818 819 820 821 821 822 823 825 826 828 829 830 832 833 833 833 834 835 836 837 839 840 841 842 843
760 766 768 766 769 764 751 747 748 752 751 744 756 773 767 757 750 746 751 753 755 762 765 766 767 765 764 763 763 765 767 768 769 771 773 774 775 775 776 776 777 778 779 780 782 783 786 788 788 788 788 789 791 796 802 806 809 811 810 811 811 812 813 815 815 815 815 815 814 814 815 817 818 819 820 821 821 822 823 825 826 828 829 830 831 832 832 832 833 834 835 837 838 840 842 842 843
764 769 774 769 768 769 760 749 744 748 751 749 755 765 763 753 745 745 750 752 754 760 764 765 766 764 763 762 763 765 768 769 770 771 772 773 774 774 774 775 776 777 778 778 780 782 786 787 786 785 786 790 795 799 803 807 808 809 808 808 809 808 809 811 813 814 814 814 814 814 815 816 818 819 820 821 822 823 824 825 826 828 829 830 831 831 831 831 832 833 835 836 838 840 841 842 844
773 772 774 770 767 771 767 755 745 745 751 753 754 758 758 748 743 747 748 749 753 758 762 764 765 764 762 761 763 765 767 769 770 769 770 771 772 773 773 774 775 776 776 777 779 783 785 785 784 784 788 794 799 801 803 806 806 806 807 807 807 806 806 808 809 811 813 813 813 813 815 816 818 819 820 821 822 823 824 825 826 828 829 829 830 830 831 831 831 832 834 836 838 840 840 842 846
778 776 776 774 770 770 770 760 748 746 751 753 755 758 755 747 746 749 746 747 751 755 759 762 763 763 762 762 764 767 768 769 769 768 769 770 771 771 772 773 774 774 775 777 779 781 783 783 783 786 791 795 799 801 802 803 803 804 805 806 805 805 805 806 808 809 811 812 812 813 814 816 817 819 820 821 822 823 824 825 826 827 828 829 829 830 830 830 830 832 834 836 837 839 839 840 845
774 774 774 776 773 770 765 757 746 744 751 754 756 758 754 749 749 750 748 750 754 755 756 760 762 763 763 765 766 768 769 770 769 768 769 769 769 769 770 771 772 773 774 776 778 779 780 781 784 788 791 795 798 800 801 801 801 803 804 804 803 803 804 806 807 809 810 810 811 813 814 815 817 818 820 821 822 823 824 825 826 827 828 828 829 830 830 831 831 832 834 836 836 837 839 840 842
770 772 774 774 774 770 759 751 742 739 749 756 753 754 754 751 749 750 750 752 758 760 760 761 762 763 764 765 767 769 769 769 768 768 769 768 768 767 768 769 770 772 774 775 776 776 778 781 784 788 790 793 795 797 799 799 799 799 799 799 800 800 802 804 806 807 809 810 811 812 813 815 816 818 819 820 822 823 824 825 825 826 827 828 829 830 831 831 832 833 835 836 836 837 839 840 842
770 773 776 775 774 768 755 747 741 736 746 757 754 755 755 750 748 750 751 753 758 761 761 763 762 762 763 765 768 770 769 770 769 769 769 768 767 767 767 767 768 770 772 773 773 775 779 782 785 788 789 791 793 795 797 797 797 796 795 795 797 799 800 802 804 806 808 809 810 811 812 814 815 817 818 820 821 822 823 824 825 826 826 828 829 830 831 831 832 833 834 835 836 837 838 840 842
772 774 776 777 770 763 755 745 741 738 744 756 757 756 755 750 747 748 749 750 753 754 754 757 758 760 763 765 768 770 770 771 770 769 768 766 766 766 766 765 765 767 769 771 773 776 779 782 785 788 788 789 791 793 795 796 796 795 796 796 797 798 800 802 804 806 807 808 809 810 811 812 814 815 817 819 820 822 822 823 824 825 826 827 828 829 830 831 832 833 834 834 836 838 838 840 843
772 773 777 777 767 765 763 751 746 744 746 754 755 754 754 752 749 746 746 749 751 751 751 751 753 754 757 760 763 765 767 769 769 768 767 766 765 765 765 763 764 766 768 770 773 776 778 781 785 788 786 787 788 791 793 794 795 797 798 798 798 799 800 802 804 806 807 808 809 810 810 812 813 814 817 818 819 821 821 823 824 825 826 827 828 828 829 830 831 832 834 834 834 836 837 839 843
771 768 772 773 764 763 764 756 751 748 750 751 753 763 762 756 756 751 748 751 752 752 754 754 754 752 754 758 760 760 760 763 766 767 766 765 764 764 764 763 764 765 767 769 771 775 777 780 784 787 784 784 786 789 791 793 795 796 797 798 799 799 800 802 804 805 806 807 809 809 810 811 811 813 815 817 818 820 821 822 823 824 826 827 828 828 829 830 830 832 833 834 834 834 835 839 842
772 764 761 762 759 759 760 760 758 761 764 755 755 778 779 763 761 757 751 754 756 756 757 756 756 756 757 760 760 760 760 761 763 764 764 764 765 766 767 766 765 766 767 770 773 775 778 780 783 786 783 781 784 787 789 791 793 794 795 797 797 798 799 800 802 804 805 806 808 808 809 810 810 812 814 816 817 818 820 821 823 824 826 826 827 828 828 829 830 831 833 834 835 834 835 838 841
774 760 751 752 753 756 760 763 766 772 774 760 757 777 786 773 762 756 752 754 758 760 760 757 758 760 760 760 761 761 762 764 765 766 766 765 767 767 767 767 768 770 774 776 777 778 779 781 782 783 782 780 782 784 787 789 791 793 794 795 797 798 798 799 801 803 804 806 807 808 808 809 810 811 813 815 816 818 819 821 822 824 825 826 827 827 828 829 830 832 833 834 835 835 835 838 839
769 752 746 750 751 754 759 764 770 772 769 766 762 765 781 782 766 758 759 757 758 761 761 758 756 758 760 761 764 764 763 765 766 768 770 771 773 774 774 775 778 782 786 786 784 783 782 782 782 781 782 781 781 783 785 787 789 791 793 795 797 798 799 799 801 803 804 805 806 806 807 808 809 810 812 814 815 817 819 820 822 823 825 826 826 827 828 829 830 832 833 834 834 835 836 837 838
757 743 743 747 748 752 755 760 769 768 769 777 771 763 780 788 774 768 767 762 764 765 763 760 754 753 757 760 763 764 764 768 771 775 778 779 780 780 781 782 784 788 789 789 789 788 786 785 784 782 782 782 782 783 784 786 789 792 795 797 798 799 800 801 801 802 803 804 805 805 806 807 809 810 813 814 815 817 819 820 821 823 824 825 826 827 828 829 830 831 832 833 834 835 836 837 838
746 739 741 743 747 752 754 759 764 765 774 782 773 766 781 794 789 783 777 773 774 771 766 764 757 755 758 761 764 767 769 773 776 778 780 779 778 778 779 780 782 783 785 786 788 789 790 789 787 785 784 784 784 785 786 788 791 794 797 799 799 799 802 803 802 802 802 803 804 805 806 808 809 811 813 815 816 817 819 820 821 822 824 825 826 826 827 829 830 831 832 833 834 835 836 837 838
739 741 745 748 752 753 756 762 762 771 785 780 770 768 777 795 802 793 786 784 780 775 774 772 767 765 768 769 770 772 774 777 778 780 781 780 780 779 779 778 778 778 779 780 782 785 788 789 789 788 786 786 786 788 789 789 791 794 794 795 795 796 800 804 802 800 800 802 804 805 806 808 809 811 813 814 816 817 818 819 821 822 824 825 826 826 827 828 829 831 832 833 834 834 835 836 838
739 745 751 759 766 764 766 771 769 784 795 778 767 768 774 794 804 794 788 785 781 781 783 783 779 777 777 777 777 776 777 779 780 782 783 782 782 781 780 779 777 776 776 777 777 778 781 784 788 791 790 789 789 789 789 789 791 791 790 790 791 792 796 801 802 801 799 800 802 804 806 808 809 811 812 814 815 816 817 819 820 822 823 825 825 826 827 828 830 831 831 832 833 834 835 836 837
742 750 759 773 783 783 785 788 786 793 791 773 765 768 779 797 801 793 790 786 786 788 788 788 786 784 783 783 782 781 781 783 784 786 785 784 783 782 781 779 777 775 776 778 777 775 776 778 783 789 791 789 788 789 789 790 791 790 790 790 790 791 793 796 798 800 799 799 801 803 805 807 808 810 812 813 814 816 817 818 820 821 823 824 825 826 827 828 829 830 831 832 833 834 835 835 836
748 755 764 777 790 796 801 802 801 798 786 775 769 771 788 802 800 798 797 790 790 791 790 790 788 787 788 787 786 785 785 786 787 788 787 786 786 783 781 778 775 774 776 778 777 775 776 777 780 785 787 785 785 787 788 789 789 789 792 792 790 790 791 792 794 797 799 800 801 803 804 806 807 809 811 812 814 815 816 818 819 821 822 823 824 825 826 828 829 830 831 832 833 834 835 835 836
748 749 757 769 777 788 797 797 797 796 787 781 778 780 794 803 802 803 798 790 791 791 790 790 789 790 790 789 789 789 789 789 789 789 789 789 788 785 782 778 775 774 775 776 775 773 773 775 779 784 786 785 784 786 788 788 788 790 792 792 789 788 789 792 794 796 798 800 802 804 805 806 807 808 810 811 813 814 816 818 819 820 821 822 823 825 826 827 828 829 830 831 832 833 834 835 836
749 748 756 765 762 768 782 788 787 789 789 787 787 791 795 794 796 797 795 793 794 793 792 791 791 791 791 791 793 792 793 793 792 791 791 790 789 786 783 780 776 775 777 776 774 772 771 773 777 782 786 788 787 787 788 787 787 789 789 788 788 788 789 793 795 797 799 801 803 805 806 807 808 809 810 811 813 814 816 817 819 820 821 822 823 824 826 827 828 829 830 831 832 833 834 835 836
751 753 756 755 749 753 772 788 788 788 793 792 792 799 798 795 795 794 794 797 798 797 797 796 796 795 794 796 797 797 797 795 794 794 792 791 789 787 784 781 778 777 778 776 774 772 772 773 776 780 784 789 789 787 784 782 783 785 787 787 787 788 790 792 794 796 800 803 805 806 807 808 809 810 811 812 814 815 816 818 819 820 821 822 824 824 825 827 828 828 829 831 832 833 834 835 836
747 756 750 746 751 754 764 784 794 798 801 795 793 801 802 801 801 797 798 801 801 801 801 801 801 799 800 801 800 800 799 797 796 795 794 792 790 788 786 783 780 779 779 777 775 773 770 770 774 777 780 783 785 784 781 782 784 786 787 787 787 788 790 791 792 793 798 802 805 806 807 809 810 812 813 814 815 816 817 819 819 820 822 823 824 824 826 827 827 828 830 831 832 833 834 835 836
736 743 740 747 765 769 769 780 792 800 802 796 798 805 804 802 803 801 803 804 802 803 803 803 803 802 803 803 802 801 799 797 797 795 794 793 791 790 788 786 783 781 781 779 776 774 770 769 770 773 777 779 779 781 781 782 786 787 787 787 786 787 789 791 792 793 796 799 802 805 807 808 810 811 813 814 816 817 818 819 820 821 822 823 824 825 826 826 827 828 829 830 832 833 834 835 835
734 738 740 747 758 765 769 774 779 788 795 798 803 808 806 804 803 802 803 803 802 803 803 804 804 803 803 803 802 801 799 798 797 796 796 794 793 792 789 787 785 783 782 780 778 776 773 773 770 768 773 777 775 778 779 780 784 787 787 786 785 787 788 791 793 795 797 798 801 806 806 806 808 810 811 813 815 816 817 818 819 820 821 822 824 825 826 826 827 828 829 830 831 833 834 835 835
744 748 752 752 751 754 762 768 769 772 783 794 801 807 808 804 801 801 801 800 800 801 803 805 805 804 804 803 802 802 801 800 799 797 797 796 794 793 790 789 787 784 783 782 781 779 777 777 773 766 769 772 772 774 777 778 782 785 786 785 785 786 788 790 792 794 797 797 800 805 806 805 806 808 810 812 813 815 816 818 819 820 821 822 823 824 826 827 827 829 830 831 832 833 834 835 836
742 748 750 750 750 756 768 774 769 764 772 783 790 802 810 805 800 801 800 799 800 800 802 805 806 805 806 805 803 803 802 801 801 800 799 798 796 795 793 791 789 787 787 785 784 783 780 779 777 772 770 771 771 773 775 778 781 784 784 784 784 786 787 790 791 793 795 795 797 802 805 804 806 808 809 811 813 815 816 818 819 820 821 822 823 824 826 827 828 829 830 831 832 833 834 835 836